sat.trackr.live / text

‹ back to catalog

STARLINK-32499

NORAD 61959 · 2024-210A

PAYLOAD ACTIVE UNKNOWN

§ Identity

Operator
Country
US
Launch date
2024-11-14
Launch site
AFETR
Launch vehicle
Mass (kg)
RCS (m²)

Purposes: comms

External: N2YO · Heavens-Above · Gunter

§ Orbital elements

Epoch: 2026-05-25T04:26:59.126784Z

Period
94.27 min
Inclination
42.9993°
Eccentricity
0.0000423
Mean motion
15.27601697 rev/d
Perigee alt
482.7 km
Apogee alt
483.3 km
Semi-major
6,861.1 km
B*
7.5889e-4
RAAN
107.4196°
Arg perigee
232.6670°
Mean anomaly
127.4144°
Rev number
8,662

§ Raw data

STARLINK-324991 61959U 24210A   26145.18540656  .00020693  00000+0  75889-3 0  99912 61959  42.9993 107.4196 0000423 232.6670 127.4144 15.27601697 86620

JSON: /api/v1/satellites/61959 · /tle

For live sub-satellite position, see the globe view (requires WebGL).

§ Visibility from observer

Set your observer location to see the next 7 days of passes ≥ 10°. The values pass through the URL so the page stays shareable.

No JS? Fill the form by hand. The geolocation button needs JavaScript.